www.pogodaiklimat.ru

Погода и климат >> Архив погоды >> Сенегал >> Диурбель


ПОГОДА в Диурбеле

  • Прогноз погоды в Диурбеле
  • Монитор погоды в Диурбеле

АРХИВ ПОГОДЫ в Диурбеле

Время (UTC), дата Ветер
(напр.,м/с)
 
Видим.   Явления Облачность Т
(С)
Тd
(С)
f
(%)
Тe
(С)
Тes
(С)
Комфортность P
(гПа)
Po
(гПа)
Тmin
(С)
Tmax
(С)
R
(мм)
R24
(мм)
S
(см)
12 11.02 В 3 10 км 6/0
[Ci sp]
+34.8 -2.4 9 +31 +42 жарко 1013.7 1012.7
15 11.02 В 1 12 км 8/0
[Ci sp]
+38.0 +1.4 10 +34 +47 очень
жарко
1010.6 1009.6
18 11.02 СВ 1 10 км 8/0
[Ac cast Ci sp]
+37.0 +4.9 14 +34 +35 очень
жарко
1010.1 1009.1 +38.9
21 11.02 штиль 0 8000 м ясно +29.3 +6.3 23 +28 +28 жарко 1011.2 1010.2
00 12.02 штиль 0 8000 м ясно +25.4 +5.0 27 +25 +25 комфорт 1012.3 1011.3
03 12.02 штиль 0 8000 м ясно +23.4 +4.6 29 +23 +23 комфорт 1011.5 1010.5
06 12.02 штиль 0 8000 м ясно +20.5 +2.3 30 +21 +21 комфорт 1011.5 1010.5 +20.5
09 12.02 штиль 0 10 км ясно +22.0 +1.7 26 +22 +26 комфорт 1013.2 1012.2
12 12.02 ЮВ 3 10 км ясно +33.4 -0.3 12 +30 +43 жарко 1014.0 1013.0
15 12.02 В 3 10 км ясно +38.0 -1.0 9 +34 +45 очень
жарко
1011.2 1010.2
18 12.02 В 2 10 км ясно +36.9 -1.4 9 +33 +34 жарко 1010.0 1009.0 +38.4
21 12.02 штиль 0 8000 м ясно +28.6 +7.1 26 +28 +28 жарко 1012.1 1011.1
00 13.02 штиль 0 8000 м ясно +26.0 +5.8 27 +25 +25 комфорт 1013.8 1012.8
03 13.02 штиль 0 8000 м ясно +23.7 +4.8 29 +23 +23 комфорт 1012.8 1011.8
06 13.02 штиль 0 8000 м ясно +21.7 +3.8 31 +22 +22 комфорт 1012.9 1011.9 +21.7
09 13.02 В 3 10 км 4/0
[Ac trans]
+26.0 +3.5 23 +25 +27 комфорт 1014.5 1013.5
12 13.02 В 4 7000 м 1/0
[Ac trans]
+33.2 +1.5 13 +30 +40 жарко 1014.3 1013.3
15 13.02 В 4 6000 м ясно +37.0 +4.9 14 +34 +43 очень
жарко
1011.7 1010.7
18 13.02 В 3 10 км 3/0
[Ac trans]
+36.4 +5.3 15 +34 +34 очень
жарко
1010.5 1009.5 +38.0
21 13.02 штиль 0 8000 м 6/0
[Ac As]
+30.4 +7.4 24 +29 +29 жарко 1012.3 1011.3
00 14.02 С 1 8000 м 8/0
[Ac As]
+29.0 +5.7 23 +28 +28 жарко 1014.1 1013.1
03 14.02 С 1 8000 м 8/0
[Ac As]
+27.0 +6.0 26 +26 +26 жарко 1013.1 1012.1
06 14.02 штиль 0 8000 м 6/0
[Ac As]
+24.0 +4.1 27 +24 +24 комфорт 1013.3 1012.3 +24.0
09 14.02 штиль 0 9000 м 6/0
[Ac cast Ci sp]
+23.0 +2.9 27 +23 +26 комфорт 1015.4 1014.4
12 14.02 В 3 10 км 6/0
[Ci sp]
+34.0 +2.7 14 +31 +43 жарко 1015.7 1014.7
15 14.02 В 2 10 км 9/0
[Ci sp]
+37.4 +2.4 11 +34 +45 очень
жарко
1012.6 1011.6
18 14.02 штиль 0 10 км 9/0
[Ci sp]
+36.4 +1.8 11 +33 +34 жарко 1012.2 1011.2 +38.1
21 14.02 штиль 0 8000 м 9/0
[Ac cast Cs]
+29.4 +7.7 26 +29 +29 жарко 1014.5 1013.5
00 15.02 С 1 8000 м 9/0
[Cs]
+26.5 +6.9 29 +26 +26 жарко 1016.1 1015.1
03 15.02 штиль 0 8000 м 8/0
[Ci sp]
+24.7 +5.9 30 +25 +25 комфорт 1015.2 1014.2
06 15.02 штиль 0 8000 м 9/0
[Ac As]
+23.0 +5.1 31 +23 +23 комфорт 1014.5 1013.5 +23.0
09 15.02 С 1 10 км 8/0
[Ac trans Ci sp]
+23.0 +3.5 28 +23 +26 комфорт 1015.7 1014.7
12 15.02 В 3 10 км 9/0
[Ci sp]
+34.8 +2.3 13 +32 +43 жарко 1015.8 1014.8
15 15.02 штиль 0 10 км 9/0
[Ci sp]
+39.0 +4.1 12 +36 +51 опасность
солнечного
удара
1012.6 1011.6
18 15.02 С 1 10 км 9/0
[Ci sp]
+37.8 +7.4 16 +36 +37 очень
жарко
1011.7 1010.7 +40.5
21 15.02 С 2 8000 м 9/0
[Cs]
+29.0 +6.6 24 +28 +28 жарко 1013.9 1012.9
00 16.02 С 3 8000 м 9/0
[Cs]
+26.5 +8.1 31 +26 +26 жарко 1015.0 1014.0
03 16.02 С 3 8000 м 9/0
[Ci sp]
+24.3 +6.4 32 +24 +24 комфорт 1013.8 1012.8
06 16.02 С 2 8000 м 9/0
[Ci sp]
+22.0 +9.0 43 +23 +23 комфорт 1013.5 1012.5 +22.0
09 16.02 С 3 9000 м 9/0
[Ci sp]
+21.2 +10.2 49 +23 +25 комфорт 1015.3 1014.3
12 16.02 С 4 8000 м 9/0
[Ci sp]
+28.0 +10.4 33 +28 +37 жарко 1015.5 1014.5
15 16.02 СВ 3 8000 м 9/0
[Ci sp]
+33.0 +9.8 24 +32 +41 жарко 1012.8 1011.8
18 16.02 СВ 2 8000 м 9/0
[Ac trans Ci sp]
+32.5 +8.8 23 +31 +32 жарко 1012.0 1011.0 +34.1
21 16.02 СЗ 3 8000 м 9/0
[Ci sp]
+24.0 +14.7 56 +27 +27 жарко 1014.3 1013.3
00 17.02 С 3 8000 м 8/0
[Ci sp]
+21.0 +14.2 65 +24 +24 комфорт 1015.3 1014.3
03 17.02 С 3 8000 м 9/0
[Ci sp]
+19.5 +13.4 68 +21 +21 комфорт 1014.0 1013.0
06 17.02 С 3 8000 м 9/0
[Ci sp]
+18.9 +13.5 71 +20 +20 1013.3 1012.3 +18.9
09 17.02 С 3 10 км 9/0
[Ac As Ci sp]
+19.8 +13.2 66 +22 +23 комфорт 1015.2 1014.2
12 17.02 С 3 10 км 9/0
[Ci sp]
+29.1 +10.6 32 +29 +41 жарко 1015.0 1014.0
15 17.02 С 2 10 км 9/0
[Ci sp]
+35.4 +6.9 17 +33 +44 жарко 1012.0 1011.0
18 17.02 С 2 10 км 6/0
[Ci sp]
+33.4 +5.7 18 +31 +32 жарко 1011.4 1010.4 +37.0
21 17.02 С 2 8000 м 8/0
[Ci sp]
+24.5 +13.5 50 +27 +27 жарко 1013.0 1012.0
03 18.02 С 3 8000 м 9/0
[Ci sp]
+19.0 +13.8 72 +20 +20 1013.5 1012.5
06 18.02 С 2 8000 м 8/0
[Ac cast Ci sp]
+18.3 +13.6 74 +19 +19 1013.2 1012.2 +18.3

 

Местоположение метеостанции Диурбель (Сенегал): широта 14.65 долгота -16.23 высота над уровнем моря 9 м.

В архиве по умолчанию представлена погода в Диурбеле за последнюю неделю. Архивные данные за месяц целиком и за предыдущие месяцы, начиная с января 2011 года, Вы можете получить, выбрав интересующий диапазон дат из раскрывающегося списка и нажав кнопку "Ввод!".


*Определитесь, кто Вы:
робот инопланетянин человек

Внимание! Время в таблицах - всемирное. Для получения местного времени необходимо прибавить поправку, которая равна 0 ч.

Смотрите также архив погоды в соседних городах и на ближайших метеорологических станциях:

Погода в Каолаке (Сенегал) (61 км)
Погода в Сапу (Гамбия) (124 км)
Погода в Кереване (Гамбия) (130 км)
Погода в Банжуле Half-Die (Гамбия) (136 км)
Погода в Дакаре (Сенегал) (137 км)
Погода в Кауере (Гамбия) (143 км)
Погода в Лингере (Сенегал) (145 км)
Погода в Женое (Гамбия) (148 км)
Погода в Банжуле (Гамбия) (153 км)
Погода в Сент-Луисе (Сенегал) (157 км)

Пояснения к столбцам:

Ветер - указаны скорость ветра в м/с - средняя за 10 мин, порывы в срок и между сроками (в фигурных скобках) и направление, откуда дует ветер: С - северный, СВ - северо-восточный, В - восточный, ЮВ - юго-восточный, Ю - южный, ЮЗ - юго-западный, З - западный, СЗ - северо-западный.
Видимость - горизонтальная дальность видимости в метрах или километрах. При видимости от 1 до 10 км при отсутствии осадков обычно наблюдается дымка, при ухудшении видимости до 1 км и менее - туман. В сухую погоду видимость может ухудшаться дымом, пылью или мглою.
Явления - указаны атмосферные явления, наблюдавшиеся в срок или в последний час перед сроком; фигурными скобками обозначены явления, наблюдавшиеся между сроками (за 1-3 часа до срока); квадратными скобками обозначены град или гололедные отложения с указанием их диаметра в мм.
Облачность - указаны через наклонную черту общая и нижняя облачность в баллах и высота нижней границы облаков в метрах; квадратными скобками обозначены формы облаков: Ci - перистые, Cs - перисто-слоистые, Cc - перисто-кучевые, Ac - высококучевые, As - высокослоистые, Sc - слоисто-кучевые, Ns - слоисто-дождевые, Cu - кучевые, Cb - кучево-дождевые. Подробнее классификацию облаков см. в Атласе облаков (PDF).
T - Температура воздуха - температура, измеренная на высоте 2 м над землей.
Td - Температура точки росы - температура, при понижении до которой содержащийся в воздухе водяной пар достигнет насыщения.
f - Относительная влажность воздуха - влажноcть воздуха, измеренная на высоте 2 м над землей.
Te - Эффективная температура - температура, которую ощущает одетый по сезону человек в тени. Характеристика душности погоды. При расчете учитывается влияние влажности воздуха и скорости ветра на теплоощущения человека.
Tes - Эффективная температура на солнце - температура, которую ощущает человек, с поправкой на солнечный нагрев. Характеристика знойности погоды. Зависит от высоты солнца над горизонтом, облачности и скорости ветра. Ночью, в пасмурную погоду, а также при ветре 12 м/с и более поправка равна нулю.
P - Атмосферное давление - приведенное к уровню моря атмосферное давление.
Po - Атмосферное давление - измеренное на уровне метеостанции атмосферное давление.
Tmin - Минимальная температура - минимум температуры воздуха на высоте 2 м над землей.
Tmax - Максимальная температура - максимум температуры воздуха на высоте 2 м над землей.
R - Количество осадков - Количество выпавших осадков за период времени, мм. При наведении курсора мыши на число - период времени, за который выпало указанное количество осадков.
R24 - Количество осадков - Количество выпавших осадков за 24 часа, мм.
S - Снежный покров - Высота снежного покрова, см. При наведении курсора мыши на число - состояние снежного покрова и степень покрытия местности в баллах.